Location: Newark
(23.1300°N, 73.6109°E)
Time: 05:24:04
(UTC+00:00)

NOAA 18 - Pass Details

Date: 26 June 2021
Orbit: 840 x 861 km, 99.0° (Epoch: 27 July)

Event Time Altitude Azimuth Distance (km) Brightness Sun altitude
Exits shadow 17:31:14 23° 289° (WNW) 1,728 7.1 -37.9°
Drops below altitude 10° 17:34:12 10° 318° (NW) 2,492 8.3 -38.2°
Sets 17:36:57 0° 330° (NNW) 3,433 9.3 -38.5°
